Regional Weather Roundup
Issued by NWS

Home | Current Version | Previous Version | Text Only | Print | Product List | Glossary Off
Versions: 1 2 3 4 5 6 7 8 9 10 11 12 13 14 15 16 17 18 19 20 21 22 23 24 25 26 27

000
ASUS45 KBOU 241707
RWRCO

WEATHER ROUNDUP FOR COLORADO
NATIONAL WEATHER SERVICE DENVER/BOULDER CO
1000 AM MST FRI FEB 24 2017

NOTE: "FAIR" INDICATES FEW OR NO CLOUDS BELOW 12000 FEET WITH NO
SIGNIFICANT WEATHER AND/OR OBSTRUCTIONS TO VISIBILITY.

COZ001>005-013-030-031-241800-
...NORTHWEST COLORADO...

CITY           SKY/WX    TMP DP  RH WIND       PRES   REMARKS
CRAIG          LGT SNOW  18  11  74 W9        29.91R WCI   7
HAYDEN         CLOUDY    16   9  73 W7        29.89R VSB 1   WCI   6
MEEKER         LGT SNOW  21  18  88 S3        29.89R VSB 3/4
MOUNT WERNER   NOT AVBL
STEAMBOAT SPGS CLOUDY    17  11  78 CALM      29.86R
WALDEN         NOT AVBL
$$

COZ006>008-011-241800-
...WEST CENTRAL VALLEYS...

CITY           SKY/WX    TMP DP  RH WIND       PRES   REMARKS
GRAND JUNCTION FAIR      33  15  47 NW5       29.95R WCI  29
MONTROSE       FLURRIES  27  16  63 W5        29.94R WCI  22
EAGLE          MOSUNNY   25  10  54 SW18      29.88R WCI  11
RIFLE          FAIR      28  18  66 CALM      29.91R
DELTA          FAIR      34  17  50 W6        29.93S WCI  29
NUCLA          CLOUDY    28  18  64 N7        29.96R WCI  21
$$

COZ017>023-064>068-241800-
...SOUTHWEST COLORADO...

CITY           SKY/WX    TMP DP  RH WIND       PRES   REMARKS
DURANGO        CLOUDY    29  10  45 W21       29.90R WCI  16
CORTEZ         PTSUNNY   29  12  49 W15G23    29.94R WCI  18
PAGOSA SPRINGS CLOUDY    23   9  53 W14G21    29.87S WCI  11
TELLURIDE      LGT SNOW  15  10  81 CALM      29.83R
WOLF CREEK PAS LGT SNOW   1   0  92 SW14G20   29.77R WCI -17
$$

COZ009-010-012-014-032>034-037-058>063-241800-
...CENTRAL COLORADO...

CITY           SKY/WX    TMP DP  RH WIND       PRES   REMARKS
ASPEN          PTSUNNY   19   9  65 N6        29.81R WCI  11
BUENA VISTA    PTSUNNY   25  -4  28 W15G24    29.77S WCI  13
COPPER MTN     LGT SNOW   5  -4  66 MISG      29.64R VSB 1
BERTHOUD PASS  SNOW      -4 -13  65 NW13G26   29.60R VSB<1/4 WCI -23
COTTONWOOD PAS FAIR      18  -6  35 SW21G36   29.72R WCI   1
GUNNISON       FLURRIES   6   0  76 SE3       29.86R
KREMMLING      PTSUNNY   27  10  50 NW5       29.83S WCI  21
LEADVILLE      CLOUDY     9  -5  53 NW8       29.72R WCI  -3
MONARCH PASS   CLOUDY     1  -2  85 SW22G29   29.77S WCI -21
SALIDA         FAIR      29  -1  26 W14G21    29.87R WCI  19
SUNLIGHT       NOT AVBL
WILKERSON PASS PTSUNNY    9   0  66 SW7       29.70R WCI  -3
$$

COZ069>075-241800-
...SAN LUIS VALLEY/SANGRE DE CRISTO MOUNTAINS...

CITY           SKY/WX    TMP DP  RH WIND       PRES   REMARKS
ALAMOSA        FAIR      25   4  40 CALM      29.83R
LA VETA PASS   CLOUDY    16   1  53 SW9G20    29.74S WCI   4
SAGUACHE       FAIR      27   5  39 NW14      29.82R WCI  15
$$

COZ035-036-038>040-241800-
...NORTHERN COLORADO FRONT RANGE...

CITY           SKY/WX    TMP DP  RH WIND       PRES   REMARKS
DENVER INTL AP LGT SNOW  19  14  81 E5        29.94R VSB 1   WCI  12
DMNS CITY PARK   N/A     20  13  75 E3        29.96S
AURORA         LGT SNOW  19  15  84 NE6       29.94R FOG     WCI  11
FRONT RANGE AP NOT AVBL
ERIE MUNI ARPT FLURRIES  22  15  74 NE3       29.97R
BOULDER MUN AP LGT SNOW  23  18  80 CALM      29.95S
CENTENNIAL     CLOUDY    19  13  77 N3        29.92R
BROOMFIELD     LGT SNOW  19  16  86 E3        29.94R
FORT COLLINS   FAIR      24  17  74 NE8       29.98R HAZE    WCI  15
LONGMONT       LGT SNOW  27  17  66 CALM      29.99R
$$

COZ041-046-047-076>085-087-088-241800-
...PIKES PEAK/PALMER DIVIDE AND SOUTHERN FOOTHILLS...

CITY           SKY/WX    TMP DP  RH WIND       PRES   REMARKS
COLO. SPRINGS  PTSUNNY   23   6  48 N7        29.89F WCI  15
A. F. ACADEMY  CLOUDY    19   7  58 N7        29.87R WCI  10
SCHRIEVER AFB  FLURRIES  20   9  62 N8        29.90  WCI  11
ELLICOTT       CLOUDY   N/A N/A N/A N13       29.88S
FALCON         LGT SNOW  17   9  69 N7        29.87S WCI   8
FORT CARSON    PTSUNNY   22   7  51 VRB6      29.90S WCI  15
LIMON          CLOUDY    19  13  77 N10       29.94R WCI   7
MONUMENT HILL  LGT SNOW  14  12  92 NW5       29.87S WCI   6
TRINIDAD       CLOUDY    21  12  68 E3        29.92R
$$

COZ042>045-048>051-090-091-241800-
...NORTHEAST COLORADO...

CITY           SKY/WX    TMP DP  RH WIND       PRES   REMARKS
GREELEY ARPT   LGT SNOW  22  17  81 NE9       30.00S WCI  12
AKRON          LGT SNOW  20  15  81 N10       29.97R WCI   9
BURLINGTON     CLOUDY    25  20  81 N14       29.97R WCI  13
WRAY           NOT AVBL
STERLING       CLOUDY    23  19  86 N7        30.00R FOG     WCI  15
HOLYOKE        CLOUDY    28  23  80 N12       30.00R HAZE    WCI  18
FORT MORGAN    LGT SNOW  23  18  81 NE6       30.00R WCI  16
$$

COZ086-089-092>099-241800-
...SOUTHEAST COLORADO...

CITY           SKY/WX    TMP DP  RH WIND       PRES   REMARKS
PUEBLO         CLOUDY    27  12  53 VRB3      29.96S
LA JUNTA       PTSUNNY   30  13  49 NW13      29.98S WCI  20
LAMAR          PTSUNNY   30  15  53 N16       29.98R WCI  19
SPRINGFIELD      N/A     30  13  49 N17G29    29.94R WCI  18
$$




USA.gov is the U.S. government's official web portal to all federal, state and local government web resources and services.